Location: Austin
(30.3000°N, 97.7500°W)
Time: 06:50:53
(UTC-05:00)

ATLAS 2AS CENTAUR R/B - Pass Details

Date: 16 June 2025
Orbit: 1040 x 1170 km, 63.7° (Epoch: 08 July)

Event Time Altitude Azimuth Distance (km) Brightness Sun altitude
Exits shadow 00:50:27 55° 38° (NE) 1,326 3.2 -35.4°
Drops below altitude 10° 00:55:45 10° 30° (NNE) 2,958 5.5 -35.7°
Sets 00:58:22 0° 30° (NNE) 3,899 6.3 -35.7°
